"Time","Temp","Dewpoint","Humidity","Pressure","Direction","Speed","Gust","Precip","PrecipRate"
"00:04:59","74.7","70.6","87","30.04","336","0","0","0.00","0.00"
"00:09:59","74.8","70.7","87","30.04","336","0","0","0.00","0.00"
"00:14:59","74.9","70.4","86.1","30.04","336","0","0","0.00","0.00"
"00:19:57","74.9","70.4","86","30.04","336","0","0","0.00","0.00"
"00:24:58","74.8","70.3","86","30.04","336","0","0","0.00","0.00"
"00:29:56","74.8","70.3","86","30.04","336","0","0","0.00","0.00"
"00:34:57","74.7","70.3","86.3","30.03","336","0","1.2","0.00","0.00"
"00:39:59","74.7","70.4","86.3","30.03","336","0","0","0.00","0.00"
"00:44:57","74.9","70.4","86","30.04","336","0","0","0.00","0.00"
"00:49:58","75","70.5","86","30.04","336","0","0","0.00","0.00"
"00:54:59","75","70.5","86","30.04","336","0","0","0.00","0.00"
"00:59:56","74.9","70.4","86","30.04","336","0","0","0.00","0.00"
"01:04:57","74.7","70.2","86","30.04","336","0","0","0.00","0.00"
"01:09:56","74.6","70.1","86","30.04","336","0","0","0.00","0.00"
"01:14:58","74.4","70","86.3","30.04","336","0","0","0.00","0.00"
"01:19:59","74.2","70.1","87","30.04","336","0","0","0.00","0.00"
"01:24:56","74.1","70","87.1","30.04","336","0","0","0.00","0.00"
"01:29:58","73.9","70","87.7","30.04","336","0","0","0.00","0.00"
"01:34:59","73.8","70","88","30.03","336","0","0","0.00","0.00"
"01:39:57","73.6","69.8","88","30.03","336","0","0","0.00","0.00"
"01:44:59","73.5","69.7","88","30.03","336","0","0","0.00","0.00"
"01:49:56","73.4","69.8","88.4","30.03","336","0","0","0.00","0.00"
"01:54:57","73.4","70","89","30.03","343","0","0","0.00","0.00"
"01:59:59","73.5","70","88.8","30.03","355","0","0","0.00","0.00"
"02:04:59","73.7","69.8","87.8","30.03","360","0","0","0.00","0.00"
"02:09:58","74.2","70.2","87.2","30.03","360","0","0","0.00","0.00"
"02:14:56","74.6","70.1","86","30.03","11","0.5","2.4","0.00","0.00"
"02:19:57","74.9","70.3","85.5","30.03","11","0.6","2.4","0.00","0.00"
"02:24:58","75.1","70.3","85","30.03","11","0.1","1.2","0.00","0.00"
"02:29:56","75.1","70.3","85","30.03","11","0.5","2.4","0.00","0.00"
"02:34:56","75","70.2","85","30.02","11","0.2","1.2","0.00","0.00"
"02:39:58","74.8","70.1","85.2","30.02","11","0","0","0.00","0.00"
"02:44:59","74.6","70","85.7","30.02","11","0.2","2.4","0.00","0.00"
"02:49:56","74.6","70","85.9","30.02","6","0.4","2.4","0.00","0.00"
"02:54:56","74.6","70.1","85.9","30.02","11","0.1","1.2","0.00","0.00"
"02:59:58","74.6","70","85.8","30.02","11","0","1.2","0.00","0.00"
"03:04:59","74.5","70","86","30.02","11","0","1.2","0.00","0.00"
"03:09:58","74.3","69.8","86","30.02","11","0.2","1.2","0.00","0.00"
"03:14:56","74.2","69.7","86","30.02","11","0","0","0.00","0.00"
"03:19:59","74","69.8","86.7","30.02","0","0.3","2.4","0.00","0.00"
"03:24:57","74","69.9","87","30.02","4","0.5","3.6","0.00","0.00"
"03:29:58","74.1","70","87","30.02","5","0.2","1.2","0.00","0.00"
"03:34:59","74.2","69.9","86.4","30.02","5","0.3","2.4","0.00","0.00"
"03:39:57","74.3","69.8","86","30.02","5","0","2.4","0.00","0.00"
"03:44:58","74.3","69.8","86","30.02","5","0.1","2.3","0.00","0.00"
"03:49:56","74.2","69.7","86","30.02","5","0","0","0.00","0.00"
"03:54:58","74.2","69.7","86","30.02","5","0.2","1.2","0.00","0.00"
"03:59:57","74.1","69.8","86.5","30.02","5","0.2","2.4","0.00","0.00"
"04:04:58","74.1","70","87","30.02","5","1","3.6","0.00","0.00"
"04:09:57","74.1","70","87","30.02","5","0.3","3.6","0.00","0.00"
"04:14:56","74.1","70","87","30.03","4","0.9","3.6","0.00","0.00"
"04:19:57","74.1","70","87","30.03","5","0.8","3.5","0.00","0.00"
"04:24:56","74","69.9","87","30.03","5","0.7","3.6","0.00","0.00"
"04:29:59","74.1","70.1","87.3","30.03","5","0.5","2.4","0.00","0.00"
"04:34:59","74.1","70.3","88","30.03","6","0.6","1.2","0.00","0.00"
"04:39:57","74.2","70.1","87.2","30.03","7","0.3","2.4","0.00","0.00"
"04:44:58","74.4","70.3","87","30.04","6","2.1","7.2","0.00","0.00"
"04:49:59","74.7","70.6","87","30.04","0","2","7.2","0.00","0.00"
"04:54:59","75","70.6","86.1","30.04","2","1.8","6","0.00","0.00"
"04:59:57","75.2","70.7","86","30.04","3","1.9","6","0.00","0.00"
"05:04:57","75.4","70.6","85","30.04","14","2.3","7.2","0.00","0.00"
"05:09:56","75.5","70.7","84.9","30.04","6","1.4","4.8","0.00","0.00"
"05:14:57","75.6","70.4","84","30.04","6","1.2","4.8","0.00","0.00"
"05:19:59","75.5","70.3","84","30.04","7","1","4.8","0.00","0.00"
"05:24:56","75.4","70.2","84","30.04","0","1.3","4.8","0.00","0.00"
"05:29:57","75.2","70","84","30.04","5","0.9","4.8","0.00","0.00"
"05:34:58","75.1","69.9","84","30.04","329","1.6","4.8","0.00","0.00"
"05:39:57","74.9","69.7","84","30.04","324","0.8","3.6","0.00","0.00"
"05:44:58","74.8","69.6","84","30.04","355","1.2","4.8","0.00","0.00"
"05:49:59","74.6","69.4","84","30.04","6","1.4","7.2","0.00","0.00"
"05:54:56","74.5","69.3","84.1","30.04","1","1","6.9","0.00","0.00"
"05:59:57","74.4","69.5","84.9","30.05","357","1.9","4.8","0.00","0.00"
"06:04:57","74.2","69.4","85","30.05","1","1.8","6","0.00","0.00"
"06:09:57","74","69.2","84.8","30.05","1","2.8","8.4","0.00","0.00"
"06:14:59","73.9","68.8","84.1","30.06","355","1.9","7.2","0.00","0.00"
"06:19:57","73.8","68.4","83.4","30.06","346","2.6","12","0.00","0.00"
"06:24:58","73.7","68.2","83","30.06","334","2","8.4","0.00","0.00"
"06:29:59","73.5","68","83","30.07","327","2","6.9","0.00","0.00"
"06:34:57","73.2","67.7","83","30.07","344","1.9","7.2","0.00","0.00"
"06:39:59","73","67.5","83","30.07","10","1.2","3.6","0.00","0.00"
"06:44:56","72.9","67.4","83","30.07","349","1.8","10.8","0.00","0.00"
"06:49:57","72.8","67.3","83","30.07","351","2.5","10.4","0.00","0.00"
"06:54:58","72.7","67.3","83.1","30.07","6","1.7","8.4","0.00","0.00"
"06:59:58","72.6","67.5","83.9","30.08","11","0.8","3.6","0.00","0.00"
"07:04:58","72.5","67.4","84","30.08","341","1.1","6","0.00","0.00"
"07:09:57","72.5","67.4","84","30.08","341","0.8","3.6","0.00","0.00"
"07:14:58","72.4","67.2","83.8","30.08","12","1.3","6","0.00","0.00"
"07:19:58","72.3","66.8","83.2","30.08","351","1.9","10.8","0.00","0.00"
"07:24:58","72.2","66.7","83","30.08","10","1.8","8.4","0.00","0.00"
"07:29:59","72.2","66.6","82.7","30.08","334","2.3","10.8","0.00","0.00"
"07:34:59","72.1","66.3","82","30.08","263","1","3.6","0.00","0.00"
"07:39:56","72.1","66.3","82","30.08","351","1.5","13.2","0.00","0.00"
"07:44:56","72.1","66.3","82","30.09","1","1.7","8.1","0.00","0.00"
"07:49:56","72.2","66.4","82","30.09","329","1.4","7.2","0.00","0.00"
"07:54:59","72.3","66.3","81.7","30.09","16","1","6","0.00","0.00"
"07:59:56","72.4","66.6","82","30.09","12","0.6","5.8","0.00","0.00"
"08:04:56","72.4","66.4","81.4","30.09","352","1.7","6","0.00","0.00"
"08:09:59","72.4","66.2","81","30.09","36","1.2","5.8","0.00","0.00"
"08:14:56","72.4","66.2","81","30.09","345","2.3","8.4","0.00","0.00"
"08:19:56","72.5","66","80.3","30.09","7","1.8","9.6","0.00","0.00"
"08:24:59","72.7","66.1","79.8","30.09","323","2.2","9.2","0.00","0.00"
"08:29:59","72.8","66","79.2","30.10","351","1.2","3.6","0.00","0.00"
"08:34:59","72.8","65.8","78.7","30.10","357","2.2","10.8","0.00","0.00"
"08:39:56","72.9","65.6","78.2","30.10","358","3.5","10.8","0.00","0.00"
"08:44:56","73","65.6","77.8","30.10","358","2.2","12","0.00","0.00"
"08:49:56","73.1","65.2","76.4","30.10","352","2.2","8.4","0.00","0.00"
"08:54:56","73.1","65.1","76","30.10","2","3.7","9.6","0.00","0.00"
"08:59:56","73.2","64.9","75.3","30.11","358","2.7","9.6","0.00","0.00"
"09:04:56","73.3","64.9","75","30.11","350","4.9","17.3","0.00","0.00"
"09:09:58","73.6","65.2","75.1","30.11","6","2.8","10.8","0.00","0.00"
"09:14:59","74.1","65.4","74.2","30.11","21","2.1","10.4","0.00","0.00"
"09:19:59","74.7","64.4","70.3","30.11","9","2.9","9.6","0.00","0.00"
"09:24:59","75","63.9","68.4","30.11","347","2.1","6","0.00","0.00"
"09:29:59","75.3","63","65.6","30.11","296","2","7.2","0.00","0.00"
"09:34:59","75.2","61.8","63.3","30.10","339","2.8","10.8","0.00","0.00"
"09:39:55","74.9","61.7","63.5","30.10","23","2","4.8","0.00","0.00"
"09:44:59","74.8","61.7","63.8","30.11","7","3","12","0.00","0.00"
"09:49:59","74.9","62","64.4","30.11","9","3","19.6","0.00","0.00"
"09:54:59","74.7","61.5","63.3","30.11","305","4","17.3","0.00","0.00"
"09:59:59","74.8","60.9","62.1","30.11","2","6","17.3","0.00","0.00"
"10:04:59","74.9","60.2","60.5","30.11","333","4","12","0.00","0.00"
"10:09:58","74.9","59.1","58","30.11","6","3.3","15","0.00","0.00"
"10:14:59","75.2","59","57.1","30.12","0","3.5","13.2","0.00","0.00"
"10:19:58","75.1","58.4","56.2","30.12","3","3.3","15","0.00","0.00"
"10:24:58","75.2","57.5","54.3","30.12","91","3.1","12.7","0.00","0.00"
"10:29:58","75.5","57.6","53.8","30.12","4","2.9","11.5","0.00","0.00"
"10:34:58","75.8","57.3","52.8","30.12","330","4","12","0.00","0.00"
"10:39:59","76.3","57.7","52.7","30.12","346","2.9","11.5","0.00","0.00"
"10:44:59","76.5","56.8","50.7","30.12","350","5.6","18.4","0.00","0.00"
"10:49:59","76.3","57.9","53","30.12","341","4.7","16.1","0.00","0.00"
"10:54:58","76.3","57.3","51.9","30.12","344","4.9","13.2","0.00","0.00"
"10:59:58","76.2","57.4","52.2","30.12","343","4.7","15","0.00","0.00"
"11:04:58","76.5","57.2","51.4","30.12","345","3.7","16.1","0.00","0.00"
"11:09:57","76.4","57.5","52.1","30.12","342","2.4","7.2","0.00","0.00"
"11:14:58","76.8","57.9","52.2","30.12","349","3.1","10.8","0.00","0.00"
"11:19:59","76.8","57.4","51.1","30.12","331","2.6","10.8","0.00","0.00"
"11:24:59","77.2","58.4","52.4","30.12","340","4","12","0.00","0.00"
"11:29:59","77.3","58.2","51.7","30.12","333","6.8","13.2","0.00","0.00"
"11:34:59","77.3","57.9","51.1","30.12","1","3.1","12.7","0.00","0.00"
"11:39:57","77.5","58.1","51.2","30.12","356","3.7","12","0.00","0.00"
"11:44:57","77.6","57.8","50.7","30.12","341","7","16.1","0.00","0.00"
"11:49:57","77.8","57.9","50.4","30.12","344","4.8","12","0.00","0.00"
"11:54:57","78","57.6","49.5","30.12","337","6.6","16.1","0.00","0.00"
"11:59:57","77.9","58.8","51.8","30.12","341","4.6","15","0.00","0.00"
"12:04:57","78.3","58.6","50.9","30.12","2","4.7","18","0.00","0.00"
"12:09:56","78.6","58","49.3","30.12","349","5.1","18.4","0.00","0.00"
"12:14:59","79.1","59.1","50.4","30.12","347","4.1","13.2","0.00","0.00"
"12:19:56","79","57.8","48.3","30.12","336","4.6","12","0.00","0.00"
"12:24:57","79.2","58.7","49.7","30.12","348","5","15.6","0.00","0.00"
"12:29:59","78.9","58","48.8","30.12","341","5.5","16.1","0.00","0.00"
"12:34:57","79.6","58.9","49.2","30.10","345","3.4","12","0.00","0.00"
"12:39:59","80.2","58.9","48.3","30.10","347","3.8","15","0.00","0.00"
"12:44:57","80","58.5","48","30.11","342","4.3","12","0.00","0.00"
"12:49:59","79.7","58.8","49","30.11","326","3.4","10.8","0.00","0.00"
"12:54:56","80.7","59.7","49","30.11","342","3.1","16.1","0.00","0.00"
"12:59:58","80.6","59.6","48.8","30.11","27","1.4","3.6","0.00","0.00"
"13:04:59","80.5","59.5","48.9","30.10","342","3.3","9.6","0.00","0.00"
"13:09:56","80.4","59.2","48.5","30.10","335","3.2","8.4","0.00","0.00"
"13:14:58","80.8","59.4","48.3","30.10","336","2.9","7.2","0.00","0.00"
"13:19:56","81.2","59.3","47.5","30.10","343","3","8.4","0.00","0.00"
"13:24:58","81.5","59.5","47.3","30.10","338","5","8.4","0.00","0.00"
"13:29:56","81.1","59","47.2","30.10","1","4.3","13.2","0.00","0.00"
"13:34:57","80.9","59.5","48.1","30.09","352","2.1","4.8","0.00","0.00"
"13:39:56","81.2","59.6","48","30.09","356","1.8","4.8","0.00","0.00"
"13:44:58","81.5","59.8","47.8","30.09","346","2.7","7.2","0.00","0.00"
"13:49:59","81.8","59.8","47.3","30.09","349","3.3","16.1","0.00","0.00"
"13:54:57","81.9","58.8","45.5","30.09","313","4.5","11.5","0.00","0.00"
"13:59:59","82.6","60.1","46.7","30.09","324","4.6","15","0.00","0.00"
"14:04:56","82.8","59.5","45.4","30.08","248","2.7","7.2","0.00","0.00"
"14:09:57","83.3","59.8","45.1","30.08","337","4.7","15","0.00","0.00"
"14:14:59","82.7","59.5","45.5","30.08","18","1.9","4.8","0.00","0.00"
"14:19:57","82.8","59.9","46","30.07","348","2.9","8.4","0.00","0.00"
"14:24:58","83.4","60.4","45.9","30.07","327","2.2","12","0.00","0.00"
"14:29:56","83.3","60.3","45.9","30.07","351","2","7.2","0.00","0.00"
"14:34:58","83.5","60.7","46.4","30.07","335","4","10.8","0.00","0.00"
"14:39:57","83.3","61.2","47.3","30.07","345","2.1","10.4","0.00","0.00"
"14:44:59","84","60.8","45.7","30.07","346","5.2","14.4","0.00","0.00"
"14:49:57","83.1","59.6","45.2","30.07","338","5","13.2","0.00","0.00"
"14:54:58","82.9","59.6","45.2","30.07","309","3.5","14.4","0.00","0.00"
"14:59:56","83.5","59.1","43.7","30.07","342","6","19.6","0.00","0.00"
"15:04:57","84.4","58.9","42.3","30.07","344","2.7","15","0.00","0.00"
"15:09:58","84","59.1","43","30.07","348","3.6","12","0.00","0.00"
"15:14:56","83.5","58","42","30.07","356","5.7","16.1","0.00","0.00"
"15:19:58","83.5","58.3","42.5","30.07","308","4.1","12","0.00","0.00"
"15:24:57","83.5","57.5","41.3","30.07","348","5.4","13.2","0.00","0.00"
"15:29:57","82.9","57.6","42.2","30.07","337","4","16.1","0.00","0.00"
"15:34:57","83.6","57.7","41.4","30.06","338","5.4","16.8","0.00","0.00"
"15:39:56","83.6","58.4","42.5","30.06","323","4.3","17.3","0.00","0.00"
"15:44:58","84","58.1","41.6","30.06","331","4.8","15","0.00","0.00"
"15:49:56","83.7","58.2","42","30.06","337","4.5","15","0.00","0.00"
"15:54:57","83.4","57.2","41","30.06","300","3.6","13.2","0.00","0.00"
"15:59:56","83.6","58.6","42.8","30.07","337","2.3","7.2","0.00","0.00"
"16:04:57","83.9","58.1","41.5","30.07","349","2.8","8.4","0.00","0.00"
"16:09:57","83.9","57.2","40.3","30.07","308","4.3","12","0.00","0.00"
"16:14:56","84.3","58.1","41.1","30.07","299","4.5","12","0.00","0.00"
"16:19:58","84.8","57.5","39.6","30.07","337","4.1","13.2","0.00","0.00"
"16:24:59","84","56.7","39.5","30.07","335","5.3","13.2","0.00","0.00"
"16:29:56","84","57.3","40.4","30.07","351","3.5","10.8","0.00","0.00"
"16:34:58","84.2","56.8","39.5","30.06","343","5.2","13.2","0.00","0.00"
"16:39:57","83.5","57.1","40.6","30.06","332","3.2","12","0.00","0.00"
"16:44:58","83.7","57.7","41.4","30.06","340","2.4","9.6","0.00","0.00"
"16:49:57","83.8","57.6","41.1","30.06","3","2.3","6.9","0.00","0.00"
"16:54:58","84.2","58.8","42.3","30.06","351","2.6","8.4","0.00","0.00"
"16:59:57","84.7","58.9","41.9","30.06","358","2.4","7.2","0.00","0.00"
"17:04:59","84.7","57.6","39.8","30.06","308","1.9","13.2","0.00","0.00"
"17:09:59","84.1","57.1","39.8","30.06","337","4.8","13.2","0.00","0.00"
"17:14:58","84","58","41.3","30.06","353","1.7","11.5","0.00","0.00"
"17:19:59","84","56.8","39.5","30.06","330","1.8","6","0.00","0.00"
"17:24:57","83.5","54.7","37.3","30.06","325","2","8.4","0.00","0.00"
"17:29:59","83.1","54.9","38","30.07","346","1.5","8.4","0.00","0.00"
"17:34:56","83.2","54.1","36.8","30.07","343","4.3","12","0.00","0.00"
"17:39:59","83.4","55.5","38.5","30.07","324","2.2","10.4","0.00","0.00"
"17:44:57","83.3","54.4","37.2","30.07","289","2.1","6","0.00","0.00"
"17:49:58","83","54.3","37.4","30.06","320","2.2","10.8","0.00","0.00"
"17:54:56","82.9","54.9","38.3","30.06","341","2.6","10.4","0.00","0.00"
"17:59:59","83.2","55.3","38.6","30.06","2","1.5","8.1","0.00","0.00"
"18:04:56","83.1","55.7","39.1","30.06","354","1.9","10.8","0.00","0.00"
"18:09:56","82.8","54.9","38.5","30.06","347","2.7","10.8","0.00","0.00"
"18:14:59","82.5","54.8","38.7","30.06","328","3.4","10.8","0.00","0.00"
"18:19:57","82.2","55.3","39.7","30.06","340","2.2","8.1","0.00","0.00"
"18:24:59","81.7","55.1","40.1","30.06","337","1.4","3.6","0.00","0.00"
"18:29:57","81.1","54.5","40","30.07","10","1.2","3.6","0.00","0.00"
"18:34:58","80.6","54.7","40.9","30.07","330","0.9","2.4","0.00","0.00"
"18:39:57","80.1","54.6","41.5","30.07","324","1.3","4.8","0.00","0.00"
"18:44:59","79.8","54.7","42.2","30.07","326","1.1","3.6","0.00","0.00"
"18:49:56","79.6","54.7","42.5","30.07","326","0.9","2.4","0.00","0.00"
"18:54:58","79.3","54.5","42.3","30.07","267","1.6","7.2","0.00","0.00"
"18:59:56","79","54.5","42.8","30.08","301","1.3","4.8","0.00","0.00"
"19:04:56","78.8","54.4","43","30.08","4","1.3","4.8","0.00","0.00"
"19:09:59","78.6","54.8","43.8","30.08","9","0.6","2.4","0.00","0.00"
"19:14:57","78.4","54.2","43.4","30.08","9","0.2","2.4","0.00","0.00"
"19:19:58","78","54.6","44.4","30.07","9","0.5","2.4","0.00","0.00"
"19:24:56","77.7","54.4","44.7","30.07","9","0.5","2.4","0.00","0.00"
"19:29:57","77.4","54.1","44.5","30.08","328","1.1","3.6","0.00","0.00"
"19:34:58","77.2","54.4","45.3","30.08","262","0.9","3.6","0.00","0.00"
"19:39:57","76.9","54.4","45.9","30.08","264","0.7","2.4","0.00","0.00"
"19:44:59","76.6","54.5","46.3","30.08","264","0.6","2.4","0.00","0.00"
"19:49:57","76.3","54.9","47.5","30.08","264","0.5","2.4","0.00","0.00"
"19:54:58","76","54.9","48","30.08","315","1.5","4.8","0.00","0.00"
"19:59:56","75.7","54.6","48.1","30.08","315","0.6","2.4","0.00","0.00"
"20:04:56","75.3","54.5","48.5","30.08","315","0.6","2.4","0.00","0.00"
"20:09:59","75","54.6","49.1","30.08","315","0.2","1.2","0.00","0.00"
"20:14:58","74.7","54.8","50","30.08","315","0.2","2.4","0.00","0.00"
"20:19:56","74.3","54.9","50.9","30.08","315","0.2","1.2","0.00","0.00"
"20:24:57","73.9","55","51.7","30.08","315","0.5","2.4","0.00","0.00"
"20:29:59","73.5","55","52.3","30.09","315","0.2","1.2","0.00","0.00"
"20:34:56","73.2","55","53","30.09","315","0.3","2.4","0.00","0.00"
"20:39:59","72.7","55.2","54.1","30.09","315","0.1","1.2","0.00","0.00"
"20:44:57","72.3","55.1","54.8","30.09","315","0","1.2","0.00","0.00"
"20:49:59","71.9","54.9","55","30.09","315","0.4","2.4","0.00","0.00"
"20:54:56","71.6","55.1","56","30.09","315","0.7","2.4","0.00","0.00"
"20:59:58","71.4","55.5","57.2","30.10","315","0.1","1.2","0.00","0.00"
"21:04:56","71.1","55.6","58","30.10","315","0.4","2.4","0.00","0.00"
"21:09:59","70.9","55.4","58","30.10","315","0.5","2.4","0.00","0.00"
"21:14:57","70.7","55.7","58.9","30.11","315","0.2","1.2","0.00","0.00"
"21:19:59","70.5","55.5","59","30.11","315","0.1","1.2","0.00","0.00"
"21:24:56","70.4","55.6","59.5","30.11","315","0.2","2.4","0.00","0.00"
"21:29:58","70.3","55.8","60","30.11","315","0.5","2.4","0.00","0.00"
"21:34:59","70.3","55.8","60.2","30.11","315","0.6","2.4","0.00","0.00"
"21:39:57","70.1","55.8","60.3","30.11","315","0.7","2.4","0.00","0.00"
"21:44:57","70","55.9","61","30.12","315","0.5","2.4","0.00","0.00"
"21:49:58","69.7","55.6","61","30.12","315","0.1","1.2","0.00","0.00"
"21:54:58","69.4","55.8","61.9","30.12","315","0","1.2","0.00","0.00"
"21:59:56","69.2","55.9","62.5","30.12","315","0","0","0.00","0.00"
"22:04:57","69.1","56","63","30.12","315","0.7","2.4","0.00","0.00"
"22:09:56","69.1","56.1","63.2","30.12","315","0.7","2.4","0.00","0.00"
"22:14:58","69","56.1","63.6","30.12","315","0.2","2.4","0.00","0.00"
"22:19:56","68.7","56","64","30.12","315","0.1","2.3","0.00","0.00"
"22:24:58","68.5","56","64.6","30.12","315","0","1.2","0.00","0.00"
"22:29:59","68.2","56","65","30.13","315","0","0","0.00","0.00"
"22:34:57","68","55.8","65","30.13","315","0.1","1.2","0.00","0.00"
"22:39:56","67.9","55.7","65.2","30.13","315","0.1","2.4","0.00","0.00"
"22:44:57","67.8","56","66.2","30.13","315","0.1","1.2","0.00","0.00"
"22:49:59","67.6","55.8","66","30.13","315","0.1","1.2","0.00","0.00"
"22:54:56","67.4","56.1","67.2","30.13","315","0","0","0.00","0.00"
"22:59:58","67","56.2","68.2","30.13","315","0.2","1.2","0.00","0.00"
"23:04:59","66.6","56.3","69.4","30.13","315","0","0","0.00","0.00"
"23:09:58","66","56.3","71","30.13","315","0","0","0.00","0.00"
"23:14:56","65.4","56","71.9","30.13","315","0","0","0.00","0.00"
"23:19:58","64.9","56","73.1","30.13","315","0","0","0.00","0.00"
"23:24:56","64.4","56","74.3","30.13","315","0","0","0.00","0.00"
"23:29:57","64","56.1","75.4","30.13","315","0","0","0.00","0.00"
"23:34:59","63.6","55.9","76","30.13","315","0","0","0.00","0.00"
"23:39:58","63.2","55.9","76.9","30.13","315","0","0","0.00","0.00"
"23:44:56","62.9","55.7","77.3","30.14","315","0","0","0.00","0.00"
"23:49:56","62.6","55.6","78","30.14","315","0","0","0.00","0.00"
"23:54:57","62.4","55.6","78.5","30.14","315","0","0","0.00","0.00"
